This demonstration page uses our WeatherBlox Daily Observations layout. Learn more.

Left ArrowRight Arrow

Hourly Observations for April 13, 2015

Temp ( °F °C ) Dew Point ( °F °C ) Humidity (%) Winds ( mph kmh ) Pressure ( in mb ) Visibility ( mi km ) Precip ( " mm )
12:53 am 00:53 Clear 46 7.8 31 -0.6 56 56 NNE 8 13 30.01 1016 10 16 0.00 0.00
1:53 am 01:53 Clear 41 5 29 -1.7 62 62 NE 5 7 30.06 1018 10 16 0.00 0.00
2:53 am 02:53 Clear 38 3.3 28 -2.2 68 68 NNW 9 15 30.06 1018 10 16 0.00 0.00
3:53 am 03:53 Clear 36 2.2 28 -2.2 73 73 NW 9 15 30.09 1019 10 16 0.00 0.00
4:53 am 04:53 Clear 37 2.8 29 -1.7 73 73 NW 9 15 30.09 1019 10 16 0.00 0.00
5:53 am 05:53 Clear 34 1.1 28 -2.2 79 79 WNW 6 9 30.11 1020 10 16 0.00 0.00
6:53 am 06:53 Clear 35 1.7 28 -2.2 76 76 NW 7 11 30.16 1021 10 16 0.00 0.00
7:53 am 07:53 Sunny 38 3.3 30 -1.1 73 73 NW 9 15 30.20 1023 10 16 0.00 0.00
8:53 am 08:53 Sunny 45 7.2 31 -0.6 58 58 N 12 19 30.22 1024 10 16 0.00 0.00
9:53 am 09:53 Sunny 53 11.7 30 -1.1 41 41 NNE 7 11 30.24 1024 10 16 0.00 0.00
10:53 am 10:53 Sunny 59 15 28 -2.2 31 31 VRB 3 6 30.25 1025 10 16 0.00 0.00
11:53 am 11:53 Sunny 60 15.6 23 -5 24 24 NW 7 11 30.26 1025 10 16 0.00 0.00
12:53 pm 12:53 Sunny 63 17.2 21 -6.1 20 20 VRB 3 6 30.26 1025 10 16 0.00 0.00
1:53 pm 13:53 Sunny 64 17.8 22 -5.6 20 20 VRB 5 7 30.24 1024 10 16 0.00 0.00
2:53 pm 14:53 Sunny 65 18.3 22 -5.6 19 19 undefined N/A 30.23 1024 10 16 0.00 0.00
3:53 pm 15:53 Sunny 67 19.4 24 -4.4 20 20 N 9 15 30.21 1023 10 16 0.00 0.00
4:53 pm 16:53 Sunny 67 19.4 24 -4.4 20 20 VRB 3 6 30.21 1023 10 16 0.00 0.00
5:53 pm 17:53 Sunny 67 19.4 25 -3.9 20 20 N 6 9 30.21 1023 10 16 0.00 0.00
6:53 pm 18:53 Sunny 65 18.3 23 -5 20 20 Calm 30.21 1023 10 16 0.00 0.00
7:53 pm 19:53 Sunny 62 16.7 24 -4.4 23 23 E 3 6 30.21 1023 7 11 0.00 0.00
8:53 pm 20:53 Clear 59 15 24 -4.4 26 26 SSE 3 6 30.21 1023 10 16 0.00 0.00
9:53 pm 21:53 Clear 56 13.3 25 -3.9 30 30 S 6 9 30.22 1023 10 16 0.00 0.00
10:53 pm 22:53 Clear 52 11.1 26 -3.3 37 37 S 6 9 30.22 1024 10 16 0.00 0.00
11:53 pm 23:53 Clear 50 10 26 -3.3 39 39 S 6 9 30.23 1024 10 16 0.00 0.00

Powered by AerisWeather